Погода в Корнеевке

Казахстан     54°00′27″N   68°25′19″E
темп.,
°C
ветер,
м/с
пор.,
м/с
влажн.,
%
обл.,
%
осадки,
мм/ч
давл.,
гПа
погр.,
м
2 марта, вт
вт200:00−20з339996 0.1 101828
03:00−21зюз349879 0.0 101845
06:00−20зюз349882 0.1 1018108
09:00−18юз3597100 0.3 1017158
12:00−16юз349389 0.3 1016244
15:00−13юз359290 0.0 1015327
18:00−14юз339487 0.0 101441
21:00−16ююз469554 0.0 1014100
3 марта, ср
ср300:00−15юз5129337 0.0 1014329
03:00−16юз6159170 0.0 1013345
06:00−17юз7158967 0.0 1013388
09:00−16юз7149097 0.0 1012418
12:00−12юз8158998 0.1 1011557
15:00−9юз91590100 0.1 1010638
18:00−7юз91687100 0.3 1009745
21:00−5юз81786100 0.1 1008726
4 марта, чт
чт400:00−3юз81590100 0.1 1007758
03:00−3юз81591100 0.1 1006670
06:00−2ююз71593100 0.2 1005728
09:00−1ююз81593100 0.3 1003837
12:000юз91494100 0.6 10021045
15:000юз81397100 0.3 1001993
18:00−1юз7139599 0.6 1001758
21:00−2з81291100 0.9 1003676
5 марта, пт
пт500:00−9зюз6129398 0.9 1006298
03:00−11зюз6129245 0.0 1009270
06:00−12юз7129023 0.0 1011259
09:00−11юз9188833 0.0 1012452
12:00−9юз11188967 0.1 1010757
15:00−5юз122087100 0.1 10091042
18:00−3юз132186100 0.2 10091132
21:00−3юз122188100 0.1 10091112
6 марта, сб
сб600:00−2юз121990100 0.4 10091032
03:00−3юз111792100 0.3 1009908
06:00−3юз101791100 0.6 1010741
09:00−2з7119698 1.3 1012606
12:00−5з598883 1.7 1014476
15:00−5з478635 0.0 1015496
18:00−7зюз338968 0.0 101653
21:00−9ююз338936 0.0 101621